Theta_e
291 288 286 289 289 287 285 283 283 287 290 287 290 290 291 294 293 294 296 297 298 298 301 300 299 299 298 297 296 296 295 299 302 302 299 297 297 299 297 298 297 296 296 294
287 285 291 290 289 288 286 285 285 288 290 286 287 289 293 294 295 296 296 297 296 296 298 299 297 297 297 297 295 295 295 296 299 301 301 299 300 298 298 297 295 296 295 294
287 289 291 289 287 286 285 284 286 285 286 287 285 285 287 292 291 293 295 295 295 294 295 296 296 296 296 296 295 294 294 294 297 298 297 290 291 290 291 291 292 292 293 292
287 290 289 286 287 287 284 288 287 285 283 280 286 280 284 290 290 291 292 292 292 293 295 294 293 294 294 295 295 294 294 293 295 296 295 295 294 293 293 295 294 292 292 292
287 286 285 285 288 288 287 287 285 284 282 281 281 278 284 286 287 289 292 294 294 293 293 294 294 294 294 292 292 293 292 292 294 294 295 294 294 295 292 293 292 291 290 291
287 287 288 288 287 288 287 285 283 282 282 277 282 281 283 284 288 288 291 294 293 293 293 296 293 293 292 291 289 290 290 290 291 293 293 293 293 291 290 290 290 289 288 288
284 285 286 287 285 285 286 283 278 276 274 277 281 279 285 288 292 291 293 292 291 292 292 293 292 291 290 290 288 288 288 288 289 290 291 292 292 289 291 290 291 288 287 287
283 285 286 287 288 286 283 284 280 274 275 281 277 280 289 289 292 291 290 290 292 292 291 290 290 291 290 290 288 288 287 288 288 288 289 290 290 290 290 289 290 289 288 288
281 282 285 286 287 288 282 281 287 281 279 278 282 285 292 293 289 289 289 288 287 288 288 289 289 290 291 291 290 288 287 287 288 287 288 288 288 288 288 287 288 289 289 288
287 285 287 286 284 286 286 287 281 279 274 275 280 282 284 289 286 286 286 285 285 286 286 287 288 289 290 291 291 291 290 288 288 288 287 288 288 288 287 286 286 286 287 286
287 286 286 286 283 283 282 282 282 283 282 278 277 281 289 283 284 283 283 283 283 283 285 286 287 289 289 290 290 289 290 289 289 289 289 287 287 287 287 285 285 286 285 285
288 288 282 284 289 287 286 286 286 282 280 281 282 282 292 283 283 281 280 281 282 283 285 286 287 288 289 288 289 288 289 288 288 289 288 288 287 286 285 286 285 285 284 284
293 287 281 283 285 286 287 288 288 287 285 281 279 282 289 285 283 282 280 280 281 282 283 286 286 287 288 287 287 287 287 288 287 287 287 287 287 286 285 285 285 284 285 284
294 287 284 280 282 286 284 286 286 286 281 281 282 284 287 280 278 280 281 281 281 281 282 285 285 285 287 285 286 287 286 287 287 286 286 286 286 286 286 286 286 284 284 284
290 283 285 285 285 284 281 281 281 279 281 277 280 280 284 276 277 279 280 282 281 280 281 283 285 283 284 283 284 285 285 286 286 285 285 285 285 285 285 285 285 285 283 284
286 281 280 276 281 280 278 279 280 279 280 280 280 280 277 278 279 278 278 281 279 278 280 282 285 282 282 282 282 283 283 284 283 284 284 285 284 283 283 284 284 284 283 282
282 280 276 274 278 276 272 276 278 278 280 278 275 273 273 274 276 276 277 281 279 278 279 280 283 280 280 281 281 280 281 282 280 282 282 283 283 282 281 282 282 282 282 282
280 277 276 273 267 266 275 277 279 277 275 274 273 271 274 277 279 279 280 280 278 279 280 280 282 279 279 280 279 279 281 278 278 279 279 280 279 279 280 280 281 281 281 281
281 277 270 269 267 271 275 276 275 275 272 274 273 275 277 279 277 276 279 279 278 279 280 281 280 279 279 278 279 278 279 277 277 277 277 277 277 276 279 279 279 280 279 279
277 278 274 264 262 256 270 275 277 276 265 272 270 270 272 275 269 273 276 278 279 279 280 280 279 277 277 277 277 277 276 274 275 276 276 276 275 275 277 277 278 279 278 279
259 260 269 269 267 264 271 273 276 262 265 271 272 274 274 273 276 278 278 278 278 278 279 278 276 275 276 276 275 275 274 273 274 274 274 273 273 274 274 275 277 277 277 278
267 259 254 254 256 260 273 273 268 271 274 274 275 276 275 277 279 279 278 278 278 276 277 277 275 275 276 276 274 273 272 274 273 271 271 270 270 271 272 271 273 276 276 275
265 269 263 265 264 274 276 275 278 278 276 277 276 277 277 277 278 278 276 275 275 276 276 276 274 273 274 274 273 271 272 272 271 268 268 268 268 268 269 269 270 273 276 274
270 273 270 271 274 274 277 279 278 278 277 278 277 277 277 276 276 275 274 274 274 274 273 273 271 270 270 271 271 270 270 270 267 265 265 266 265 266 266 268 269 271 274 274
273 272 269 271 274 276 276 278 278 279 278 276 275 275 274 273 272 272 271 271 271 271 270 270 268 268 267 268 267 267 267 265 264 263 264 263 263 263 264 266 267 270 274 275
276 273 271 269 276 275 276 279 277 277 276 272 271 271 272 272 270 270 268 269 268 267 267 265 265 264 263 263 263 263 263 262 261 260 260 261 261 262 262 263 264 270 273 276
Wind_Speed
2 5 9 15 15 3 3 5 6 13 13 4 24 19 14 16 14 23 24 21 15 15 18 8 6 9 9 7 9 14 15 15 14 12 12 9 14 12 10 11 14 16 14 14
4 8 17 3 5 8 7 8 16 8 12 3 13 21 21 20 23 19 22 19 9 9 16 14 6 6 8 7 9 10 14 15 16 13 12 5 10 9 9 9 11 14 14 15
9 6 3 6 4 7 4 7 10 10 8 6 9 9 4 7 7 5 12 8 9 10 12 14 14 11 9 9 8 11 13 14 14 13 10 4 6 3 7 8 9 12 15 15
7 3 6 4 6 8 7 11 10 6 5 4 6 17 5 8 10 8 5 5 7 8 9 8 9 13 11 10 6 6 8 12 12 13 11 17 11 10 8 11 9 11 15 15
8 7 4 4 9 8 12 3 3 2 3 4 2 3 5 3 7 7 6 3 3 5 5 13 16 14 16 11 9 5 3 6 8 12 13 12 11 8 5 7 13 12 11 12
7 4 5 8 4 6 4 4 6 4 3 5 9 8 2 5 5 1 2 8 3 14 13 17 9 10 12 12 10 8 4 2 1 6 6 11 12 4 5 9 11 11 9 9
1 5 3 2 1 2 3 5 4 4 2 9 1 2 7 5 10 5 8 10 9 9 12 17 20 19 18 17 11 9 8 6 4 3 3 6 7 6 9 8 7 11 9 9
4 17 8 5 7 8 8 10 8 8 7 10 2 9 14 8 5 5 7 7 14 20 18 18 19 20 19 20 17 12 10 7 5 3 4 3 4 4 5 6 7 9 10 12
5 9 1 6 5 7 3 7 4 1 2 1 8 12 16 8 7 14 18 21 18 18 18 18 18 19 18 18 19 16 13 9 7 5 3 4 4 5 6 6 4 5 7 7
2 9 5 3 1 5 8 1 1 2 4 13 7 14 15 13 12 13 16 15 12 13 15 15 15 15 15 15 15 16 16 14 12 9 5 5 5 6 6 6 10 10 9 8
3 8 11 2 7 8 2 4 4 3 6 12 10 8 9 9 8 9 8 7 9 10 11 11 10 10 11 12 15 16 16 17 17 15 12 8 8 8 7 9 9 10 8 10
5 5 6 11 7 1 2 7 7 7 8 5 9 8 5 12 11 9 7 9 10 11 11 10 10 9 10 12 13 14 14 14 15 15 14 13 9 8 9 11 10 8 11 10
1 4 7 5 3 3 2 1 5 4 4 13 12 4 5 9 10 11 9 9 8 9 11 11 12 13 12 13 12 12 13 13 12 13 14 15 15 11 9 11 10 8 10 12
1 4 13 15 8 3 8 15 5 7 8 11 11 12 10 7 11 10 8 6 7 9 12 10 8 13 13 12 11 11 12 12 13 13 11 10 12 14 14 13 10 7 10 12
3 8 8 12 15 6 8 10 14 15 16 11 15 19 21 2 3 5 7 5 8 10 9 10 9 10 11 13 12 11 10 11 13 13 12 12 12 12 11 12 12 10 9 12
2 8 3 7 8 8 14 17 19 20 18 15 19 22 5 3 3 4 6 3 7 10 10 10 9 9 9 12 13 14 12 11 10 10 11 11 11 13 13 13 12 11 11 10
4 2 3 19 10 7 10 17 15 14 17 13 17 3 2 2 3 5 4 3 5 8 9 11 8 8 9 10 8 10 12 11 11 11 10 9 12 13 14 15 14 12 11 10
7 7 4 11 4 21 6 3 1 7 2 4 5 2 5 7 5 6 4 6 7 9 9 10 8 7 9 10 9 9 9 10 11 11 11 12 14 17 15 14 15 14 10 11
17 12 6 8 12 12 14 5 4 4 5 6 6 4 4 4 2 7 8 7 8 7 9 10 7 8 10 11 10 8 10 10 11 11 11 12 13 15 13 13 15 15 13 12
6 13 11 2 4 7 3 1 1 4 5 7 5 5 5 2 3 10 8 6 8 8 9 10 8 10 10 11 7 10 11 10 12 11 11 11 13 15 15 15 14 12 12 14
4 3 11 11 8 8 6 5 2 7 7 5 6 9 8 7 12 11 4 7 7 8 10 8 8 11 14 11 7 12 13 14 12 8 10 12 12 14 14 15 15 15 14 12
4 4 4 4 1 9 4 2 5 7 4 6 7 11 8 11 14 13 12 10 8 9 13 13 11 13 14 13 11 14 16 15 11 9 12 14 15 13 13 16 16 16 13 13
4 7 6 11 8 4 5 6 15 11 10 13 5 9 8 11 11 11 7 6 8 12 13 13 12 15 16 15 11 15 18 13 13 11 15 17 16 15 15 15 17 14 13 10
6 6 9 11 11 14 17 17 12 10 12 10 6 7 5 7 6 7 8 11 12 13 12 11 12 16 19 16 15 14 16 15 14 16 19 17 17 17 16 13 13 13 13 11
9 4 6 13 14 15 18 16 17 16 9 5 2 1 1 3 7 6 11 12 12 13 13 13 14 15 20 20 20 17 17 16 17 19 18 18 15 17 16 15 14 13 15 14
12 17 11 15 16 14 19 15 1 3 1 3 4 3 1 3 8 9 12 12 13 15 15 16 17 18 20 21 21 19 17 17 18 19 15 14 13 13 13 14 15 25 31 35
Wind_Direction
25 113 211 218 205 130 234 230 250 264 272 293 284 279 271 273 258 271 276 275 275 279 278 296 276 263 252 223 203 199 190 193 179 184 179 190 202 196 195 196 192 187 185 183
58 210 222 172 164 223 246 278 269 276 267 175 271 285 284 260 266 257 266 281 298 290 305 312 302 271 262 254 214 200 201 193 192 188 192 192 190 207 205 196 193 192 185 181
191 219 127 179 203 242 213 226 267 258 325 253 308 267 221 263 246 268 260 291 286 284 298 312 322 309 275 268 243 209 202 197 200 192 170 113 100 101 178 191 189 194 183 180
227 273 188 156 211 171 258 231 251 277 357 275 29 301 207 242 272 263 342 282 301 320 320 301 289 332 334 294 285 225 216 183 191 183 193 194 193 181 198 195 196 193 192 186
249 171 167 169 217 155 226 188 247 152 180 329 27 308 276 197 252 292 301 51 324 274 264 1 360 334 333 338 332 308 182 183 191 190 192 201 221 207 157 163 176 186 190 193
247 322 188 220 218 198 100 87 45 56 88 285 210 189 25 172 197 256 288 323 341 14 357 1 359 335 350 359 3 5 48 42 123 181 212 221 221 217 177 167 176 177 175 180
230 227 251 170 160 33 111 72 320 328 21 229 183 233 236 278 287 10 313 335 17 340 6 10 6 10 8 10 5 26 28 12 358 319 259 241 240 213 204 194 188 175 174 188
208 283 185 167 206 200 187 169 182 216 230 260 160 246 265 209 29 305 17 61 22 16 20 17 13 10 13 13 14 10 17 8 3 350 314 302 297 272 262 209 184 190 197 197
194 263 197 210 162 157 170 196 233 290 63 293 254 273 295 322 66 45 38 34 21 13 11 14 13 14 8 14 17 16 7 6 0 325 296 270 259 234 226 218 215 216 212 199
289 303 186 306 91 231 183 177 172 305 210 241 219 253 258 304 71 39 27 22 20 14 11 14 17 13 8 11 13 18 22 16 6 347 313 285 259 247 241 215 209 198 197 178
234 203 260 103 196 205 167 245 237 286 210 247 250 231 237 94 94 86 47 33 25 20 10 9 10 14 18 13 11 10 13 7 9 4 357 315 285 260 243 236 222 213 200 191
223 213 200 235 241 234 240 248 209 223 230 254 250 245 6 104 93 85 71 48 29 17 9 4 2 1 15 18 15 8 2 6 1 348 353 355 321 278 257 250 238 208 206 200
134 225 281 272 323 18 153 289 254 245 184 251 261 261 125 55 45 37 46 34 25 20 4 356 360 359 5 4 6 8 356 356 357 351 347 348 354 344 293 269 253 221 221 208
55 226 254 255 257 315 275 273 245 244 261 273 257 284 283 4 351 4 7 7 4 6 352 344 356 357 352 353 359 356 355 354 346 346 343 341 342 339 337 317 288 244 229 222
207 258 255 266 273 266 255 274 277 270 269 264 285 283 282 112 316 322 310 344 345 354 345 335 347 347 338 341 351 352 349 346 339 337 339 338 336 333 330 324 317 283 240 235
224 268 233 263 263 255 276 274 267 272 278 266 259 261 115 190 250 305 313 344 329 333 324 322 316 325 331 333 338 337 336 338 332 325 327 322 330 335 335 330 327 311 280 254
259 283 245 273 291 319 265 247 259 260 259 265 262 265 168 260 253 263 283 245 283 297 302 311 304 317 317 317 318 321 323 327 326 322 326 323 327 330 331 331 330 320 295 267
240 246 260 274 24 267 272 58 220 241 55 129 103 179 207 225 241 279 266 235 271 279 284 295 285 294 305 300 303 310 311 317 317 319 323 332 333 328 323 327 323 315 301 272
219 236 254 246 242 284 291 235 197 193 254 183 168 222 258 252 319 275 232 233 265 268 268 274 263 275 287 282 290 295 296 306 309 308 314 321 323 317 310 311 312 310 298 278
208 226 238 107 220 221 244 159 103 106 275 218 175 228 249 134 235 265 225 238 247 261 275 283 280 281 286 285 274 284 280 293 289 294 305 310 308 304 305 306 293 288 277 272
2 3 225 234 244 287 229 235 144 91 268 210 193 230 227 211 231 257 223 246 232 243 268 268 279 281 284 285 272 276 283 279 288 282 297 300 294 295 296 295 299 292 291 288
198 172 203 56 19 275 193 76 148 215 246 210 212 235 240 260 255 251 264 278 298 300 301 292 291 290 291 294 295 287 280 291 290 286 292 295 297 293 294 293 289 283 275 270
283 189 200 193 210 229 198 226 280 267 256 271 229 262 234 258 253 256 277 292 291 289 286 295 294 290 290 291 291 284 288 300 296 288 290 293 292 289 287 284 284 284 269 256
250 194 241 265 251 260 272 274 268 260 244 254 257 258 262 253 282 302 295 291 291 291 293 296 293 292 294 300 297 290 301 306 301 294 291 291 288 290 285 280 276 275 268 260
232 161 243 254 257 267 265 256 260 272 275 282 52 41 348 314 288 283 288 298 298 301 307 308 303 300 296 303 300 303 304 305 294 290 290 291 289 285 284 275 274 269 269 254
236 248 240 253 258 252 265 270 58 229 229 38 6 334 342 306 298 309 298 304 307 308 315 310 305 303 300 300 299 301 301 298 294 290 288 286 287 286 284 284 283 272 273 272